User: anonymous
Location: Great Northern Moose Lodge
(44.6765°N, 71.1811°W)
Time: 04:15:47
(UTC-04:00)
Language:

Terra - Orbit

View from above orbital plane
View from above orbital plane
View from above satellite
View from above satellite

Ground track
Ground track

The orbit data is extracted from the following two-line orbital elements,

1 25994U 99068A   14208.82287822  .00000004  00000-0  10891-4 0  4717
2 25994 098.2106 282.9950 0001325 098.8917 261.2399 14.57087703776986
Epoch (UTC): 27 July 2014 19:44:56
Eccentricity: 0.0001325
inclination: 98.2106°
perigee height: 701 km
apogee height: 703 km
right ascension of ascending node: 282.9950°
argument of perigee: 98.8917°
revolutions per day: 14.57087703
mean anomaly at epoch: 261.2399°
orbit number at epoch: 77698

The dashed part of the orbit path shows where the satellite is in the earth's shadow,  

DLR